You are listening to:
KSWF Tower - Newburgh, New York, United States

KSWF 161745Z 10008KT 10SM SCT020 SCT060 24/17 A3024

If stream doesn't start automatically press the play button
If stream stops then reload player then press play